Flag for U.S.A. Weather past 2 weeks in Orlando, Florida, U.S.A.

Now
80 °F

Passing clouds.


Feels Like: 82 °F
Forecast: 67 / 85 °F
Wind: 6 mph from Southeast

Location: Orlando Executive Airport

Current Time: Mar 4, 2015 at 7:57:16 PM

Latest Report: Mar 4, 2015 at 6:53 PM


Visibility: 10 mi

Pressure: 30.07 "Hg

Humidity: 56%

Dew point: 63 °F

Location of OrlandoLocation

Historic Weather in Orlando — Graph

°F

Orlando temperature yesterday

Maximum temperature yesterday: 83 °F (at 2:53 PM)
Minimum temperature yesterday: 64 °F (at 5:53 AM)
Average temperature yesterday: 72 °F

Past Weeks' High & Low Weather Summary

 TemperatureHumidityPressure
High84 °F (Mar 4, 2:53 PM)100% (Mar 2, 2:53 AM)30.47 "Hg (Mar 2, 2:53 AM)
Low34 °F (Feb 20, 6:53 AM)21% (Feb 19, 3:53 PM)29.68 "Hg (Feb 26, 3:53 AM)
Average63 °F74%30.17 "Hg
* Reported Feb 17 6:04 PM — Mar 4 6:53 PM, Orlando, Weather by CustomWeather, © 2015

Note: Actual official high and low records may vary slightly from our data, if they occured in-between our weather recording intervals... More about our weather records

Advertising

Orlando weather history for previous 24 hours

 ConditionsComfort  
Time TempWeatherWind HumidityBarometerVisibility
6:53 PM
Wed, Mar 4
80 °FPassing clouds.6 mph56%30.07 "Hg10 mi
5:53 PM82 °FSunny.7 mph53%30.07 "Hg10 mi
4:53 PM84 °FScattered clouds.8 mph49%30.06 "Hg10 mi
3:53 PM83 °FScattered clouds.6 mph51%30.07 "Hg10 mi
2:53 PM84 °FPassing clouds.12 mph51%30.09 "Hg10 mi
1:53 PM83 °FScattered clouds.9 mph53%30.11 "Hg10 mi
12:53 PM83 °FPassing clouds.14 mph55%30.14 "Hg10 mi
11:53 AM81 °FScattered clouds.10 mph60%30.17 "Hg10 mi
11:00 AM79 °FPartly sunny.12 mph65%30.17 "Hg10 mi
10:53 AM79 °FScattered clouds.10 mph65%30.18 "Hg10 mi
9:53 AM78 °FPassing clouds.16 mph69%30.19 "Hg10 mi
8:53 AM73 °FSunny.8 mph84%30.19 "Hg10 mi
7:53 AM68 °FSunny.3 mph96%30.17 "Hg10 mi
6:58 AM65 °FSunny.3 mph97%30.15 "Hg10 mi
6:02 AM63 °FFog.3 mph100%30.13 "Hg1 mi
5:53 AM64 °FFog.5 mph97%30.13 "Hg0 mi
5:04 AM65 °FFog.5 mph97%30.11 "Hg2 mi
4:53 AM65 °FFog.5 mph97%30.12 "Hg1 mi
3:53 AM67 °FClear.3 mph97%30.12 "Hg9 mi
2:53 AM68 °FClear.6 mph93%30.12 "Hg10 mi
1:53 AM68 °FClear.6 mph93%30.15 "Hg10 mi
12:53 AM69 °FClear.7 mph90%30.17 "Hg10 mi
11:53 PM
Tue, Mar 3
70 °FClear.8 mph90%30.17 "Hg10 mi
10:53 PM71 °FClear.12 mph87%30.18 "Hg10 mi
9:53 PM72 °FClear.13 mph81%30.18 "Hg10 mi
8:53 PM73 °FOvercast.13 mph79%30.17 "Hg10 mi
7:53 PM74 °FOvercast.12 mph74%30.17 "Hg10 mi
Weather by CustomWeather, © 2015

See weather overviewHow to use our weather pages